Location: Assche-ter-Heiden
(50.9174°N, 4.1574°E)
Time: 11:49:31
(UTC+00:00)

NOSS 2-2 (E) - Pass Details

Date: 20 January 2020
Orbit: 484 x 1723 km, 63.3° (Epoch: 24 February)

Event Time Altitude Azimuth Distance (km) Brightness Sun altitude
Exits shadow 05:59:58 22° 252° (WSW) 1,175 4.5 -14.7°
Maximum altitude 06:02:13 53° 322° (NW) 689 3.5 -14.3°
Drops below altitude 10° 06:06:38 10° 40° (NE) 2,071 6.6 -13.7°
Sets 06:09:18 0° 45° (NE) 3,162 7.6 -13.3°
